sim
Sign-in with your pilot id or email,
or register
Callsign
Passwort

Schedule Details

Flight Number: RYR5142 (3)
Departure: Karlsruhe/Baden-Baden Airport (EDSB) at 07:05
Arrival: Thessaloniki International Airport (LGTS) at 09:40
Route: Ryanair Passenger Schedule. Enter filed route here before submitting Pirep.

Weather Information
Getting current METAR information for EDSB 192250Z AUTO 00000KT 9999 NCD 14/04 Q1026
Getting current METAR information for LGTS 192250Z 15005KT 9999 FEW020 13/09 Q1023 NOSIG

Schedule Frequency

Route Map